This is the latest recevied weather packets stored in our database for station/object KM4NDN. If no packets are shown the sender has not sent any weather packets the latest 10 day(s).
| Time | Temp. | Humidity | Pressure | Rain* | Wind** | Luminosity | Snow |
|---|---|---|---|---|---|---|---|
| 1777907575 | 17.78° C | 53% | 1004.9 hPa | 0 mm | - | 682 W/m² | - |
| 1777907270 | 17.78° C | 54% | 1004.9 hPa | 0 mm | - | 675 W/m² | - |
| 1777906967 | 17.22° C | 54% | 1004.7 hPa | 0 mm | - | 656 W/m² | - |
| 1777906665 | 17.22° C | 54% | 1004.8 hPa | 0 mm | - | 656 W/m² | - |
| 1777906361 | 16.67° C | 56% | 1004.8 hPa | 0 mm | - | 646 W/m² | - |
| 1777906058 | 16.67° C | 57% | 1004.9 hPa | 0 mm | - | 635 W/m² | - |
| 1777905754 | 16.67° C | 57% | 1005.2 hPa | 0 mm | - | 596 W/m² | - |
| 1777905452 | 16.67° C | 56% | 1005.1 hPa | 0 mm | - | 559 W/m² | - |
| 1777905149 | 16.67° C | 54% | 1005.1 hPa | 0 mm | - | 577 W/m² | - |
| 1777904846 | 16.67° C | 57% | 1005.1 hPa | 0 mm | - | 587 W/m² | - |
| 1777904543 | 16.67° C | 56% | 1005.3 hPa | 0 mm | - | 574 W/m² | - |
| 1777904240 | 16.11° C | 55% | 1005.3 hPa | 0 mm | - | 564 W/m² | - |
| 1777903937 | 16.11° C | 56% | 1005.3 hPa | 0 mm | - | 531 W/m² | - |
| 1777903634 | 16.11° C | 57% | 1005.2 hPa | 0 mm | - | 496 W/m² | - |
| 1777903329 | 15.56° C | 56% | 1005.4 hPa | 0 mm | - | 508 W/m² | - |
| 1777903026 | 15.56° C | 57% | 1005.5 hPa | 0 mm | - | 493 W/m² | - |
| 1777902723 | 15.56° C | 57% | 1005.3 hPa | 0 mm | - | 480 W/m² | - |
| 1777902420 | 15.56° C | 57% | 1005.3 hPa | 0 mm | - | 473 W/m² | - |
| 1777902116 | 15.56° C | 57% | 1005.5 hPa | 0 mm | - | 461 W/m² | - |
| 1777901815 | 15° C | 58% | 1005.6 hPa | 0 mm | - | 446 W/m² | - |
| 1777901512 | 15° C | 57% | 1005.4 hPa | 0 mm | - | 449 W/m² | - |
| 1777901210 | 15° C | 57% | 1005.6 hPa | 0 mm | - | 407 W/m² | - |
| 1777900907 | 14.44° C | 59% | 1005.6 hPa | 0 mm | - | 394 W/m² | - |
| 1777900604 | 14.44° C | 58% | 1005.7 hPa | 0 mm | - | 337 W/m² | - |
| 1777900301 | 14.44° C | 58% | 1005.7 hPa | 0 mm | - | 354 W/m² | - |
* Rain latest hour (hover to see other rain measurements)
** Current wind speed in m/s (hover to see current wind gust speed)